RYR57HT LPFR-LFOB

Flight info

Callsign RYR57HT
Flight time 2h 15m
Altitude 36000
Route ELVAR DCT BARDI DCT ZMR DCT NUBLO DCT RONSI DCT DELOG DCT PEXOD DCT DIDIG UP87 MOKOR UN873 RONAX J55 LGL Z295 PEXIR
Aircraft B738/M-SDE3FGILRWY/SB1

Departure

Time 2026-04-20 17:26
Airport Faro - Gago Coutinho International Airport (LPFR)

Arrival

Time 2026-04-20 19:41
Airport Beauvais-Tillé airport (LFOB)
Time Latitude Longitude Altitude Speed Heading
2026-04-20 16:54 37.01869 -7.96533 19 ft 0 kts
2026-04-20 17:13 37.01872 -7.96533 19 ft 0 kts
2026-04-20 17:14 37.01869 -7.96533 19 ft 3 kts 10°
2026-04-20 17:14 37.01843 -7.96541 21 ft 4 kts 20°
2026-04-20 17:14 37.01816 -7.96555 20 ft 4 kts 16°
2026-04-20 17:15 37.01797 -7.96558 19 ft 4 kts 301°
2026-04-20 17:15 37.01787 -7.96532 22 ft 4 kts 292°
2026-04-20 17:15 37.01778 -7.96498 20 ft 4 kts 283°
2026-04-20 17:15 37.01773 -7.96467 20 ft 4 kts 276°
2026-04-20 17:16 37.01771 -7.96434 19 ft 4 kts 278°
2026-04-20 17:16 37.01770 -7.96427 19 ft 0 kts 279°
2026-04-20 17:19 37.01773 -7.96448 22 ft 6 kts 278°
2026-04-20 17:20 37.01741 -7.96520 19 ft 14 kts 204°
2026-04-20 17:20 37.01691 -7.96535 19 ft 6 kts 191°
2026-04-20 17:20 37.01649 -7.96552 21 ft 8 kts 213°
2026-04-20 17:20 37.01632 -7.96628 19 ft 12 kts 276°
2026-04-20 17:21 37.01648 -7.96747 19 ft 16 kts 279°
2026-04-20 17:21 37.01671 -7.96898 19 ft 19 kts 280°
2026-04-20 17:21 37.01694 -7.97056 19 ft 18 kts 280°
2026-04-20 17:21 37.01716 -7.97210 21 ft 18 kts 281°
2026-04-20 17:22 37.01737 -7.97357 19 ft 17 kts 279°
2026-04-20 17:22 37.01757 -7.97500 19 ft 16 kts 280°
2026-04-20 17:22 37.01776 -7.97637 20 ft 16 kts 280°
2026-04-20 17:22 37.01795 -7.97768 21 ft 15 kts 279°
2026-04-20 17:23 37.01813 -7.97901 22 ft 17 kts 279°
2026-04-20 17:23 37.01835 -7.98056 23 ft 19 kts 279°
2026-04-20 17:23 37.01858 -7.98216 27 ft 18 kts 281°
2026-04-20 17:23 37.01882 -7.98385 26 ft 21 kts 279°
2026-04-20 17:24 37.01895 -7.98482 24 ft 9 kts 277°
2026-04-20 17:24 37.01875 -7.98555 28 ft 9 kts 223°
2026-04-20 17:24 37.01816 -7.98577 24 ft 9 kts 190°
2026-04-20 17:24 37.01757 -7.98590 25 ft 9 kts 189°
2026-04-20 17:25 37.01720 -7.98556 30 ft 3 kts 99°
2026-04-20 17:25 37.01717 -7.98528 27 ft 3 kts 99°
2026-04-20 17:25 37.01694 -7.98365 30 ft 52 kts 99°
2026-04-20 17:25 37.01587 -7.97609 18 ft 122 kts 100°
2026-04-20 17:26 37.01410 -7.96348 38 ft 173 kts 100°
2026-04-20 17:26 37.01157 -7.94773 626 ft 183 kts 100°
2026-04-20 17:26 37.00966 -7.93192 1435 ft 187 kts 89°
2026-04-20 17:26 37.01474 -7.91737 2329 ft 196 kts 44°
2026-04-20 17:27 37.02812 -7.91011 2606 ft 230 kts
2026-04-20 17:27 37.04490 -7.90994 2891 ft 251 kts
2026-04-20 17:27 37.06312 -7.90675 3190 ft 275 kts
2026-04-20 17:27 37.08219 -7.90289 3988 ft 279 kts
2026-04-20 17:28 37.10142 -7.89864 4863 ft 283 kts 10°
2026-04-20 17:28 37.12090 -7.89390 5722 ft 286 kts 11°
2026-04-20 17:28 37.14046 -7.88874 6617 ft 288 kts 12°
2026-04-20 17:28 37.16009 -7.88328 7440 ft 291 kts 12°
2026-04-20 17:29 37.18001 -7.87753 8242 ft 296 kts 12°
2026-04-20 17:29 37.20006 -7.87159 9126 ft 297 kts 12°
2026-04-20 17:29 37.22032 -7.86536 9922 ft 302 kts 13°
2026-04-20 17:29 37.24111 -7.85889 10397 ft 318 kts 13°
2026-04-20 17:30 37.26347 -7.85195 10601 ft 342 kts 13°
2026-04-20 17:30 37.28698 -7.84464 11128 ft 353 kts 13°
2026-04-20 17:30 37.31098 -7.83716 11886 ft 357 kts 14°
2026-04-20 17:30 37.33512 -7.82938 12662 ft 360 kts 14°
2026-04-20 17:31 37.35952 -7.82165 13424 ft 364 kts 14°
2026-04-20 17:31 37.38424 -7.81394 14115 ft 368 kts 14°
2026-04-20 17:31 37.40918 -7.80620 14807 ft 371 kts 13°
2026-04-20 17:31 37.43436 -7.79838 15490 ft 374 kts 13°
2026-04-20 17:32 37.45982 -7.79044 16119 ft 379 kts 13°
2026-04-20 17:32 37.48565 -7.78236 16703 ft 386 kts 13°
2026-04-20 17:32 37.51182 -7.77415 17354 ft 389 kts 13°
2026-04-20 17:32 37.53820 -7.76585 18017 ft 393 kts 13°
2026-04-20 17:33 37.56485 -7.75746 18589 ft 397 kts 13°
2026-04-20 17:33 37.59171 -7.74900 19162 ft 400 kts 13°
2026-04-20 17:33 37.61877 -7.74045 19747 ft 402 kts 13°
2026-04-20 17:33 37.64602 -7.73184 20311 ft 405 kts 13°
2026-04-20 17:34 37.67349 -7.72316 20875 ft 408 kts 13°
2026-04-20 17:34 37.70076 -7.71453 21421 ft 411 kts 13°
2026-04-20 17:34 37.72861 -7.70572 21994 ft 413 kts 13°
2026-04-20 17:34 37.75661 -7.69684 22547 ft 416 kts 13°
2026-04-20 17:35 37.78477 -7.68791 23072 ft 419 kts 13°
2026-04-20 17:35 37.81315 -7.67891 23563 ft 422 kts 13°
2026-04-20 17:35 37.84176 -7.66982 23981 ft 425 kts 13°
2026-04-20 17:35 37.87054 -7.66067 24395 ft 428 kts 13°
2026-04-20 17:36 37.89957 -7.65144 24795 ft 431 kts 12°
2026-04-20 17:36 37.92879 -7.64214 25194 ft 435 kts 12°
2026-04-20 17:36 37.95819 -7.63277 25599 ft 437 kts 12°
2026-04-20 17:36 37.98780 -7.62332 26012 ft 440 kts 12°
2026-04-20 17:37 38.01754 -7.61383 26400 ft 443 kts 12°
2026-04-20 17:37 38.04750 -7.60426 26778 ft 445 kts 12°
2026-04-20 17:37 38.07767 -7.59462 27140 ft 448 kts 12°
2026-04-20 17:37 38.10798 -7.58492 27481 ft 451 kts 12°
2026-04-20 17:38 38.13853 -7.57514 27835 ft 454 kts 12°
2026-04-20 17:38 38.16925 -7.56529 28180 ft 457 kts 12°
2026-04-20 17:38 38.20017 -7.55537 28516 ft 460 kts 12°
2026-04-20 17:38 38.23129 -7.54538 28856 ft 462 kts 12°
2026-04-20 17:39 38.25197 -7.53873 29074 ft 464 kts 12°
2026-04-20 17:39 38.28335 -7.52864 29382 ft 467 kts 12°
2026-04-20 17:39 38.31492 -7.51848 29704 ft 469 kts 12°
2026-04-20 17:39 38.34663 -7.50826 29992 ft 472 kts 12°
2026-04-20 17:40 38.37854 -7.49797 30265 ft 473 kts 12°
2026-04-20 17:40 38.41047 -7.48766 30607 ft 473 kts 12°
2026-04-20 17:40 38.44228 -7.47737 31053 ft 470 kts 12°
2026-04-20 17:40 38.47390 -7.46714 31488 ft 468 kts 12°
2026-04-20 17:41 38.50543 -7.45693 31825 ft 468 kts 12°
2026-04-20 17:41 38.53700 -7.44671 32124 ft 469 kts 12°
2026-04-20 17:41 38.56862 -7.43646 32446 ft 468 kts 12°
2026-04-20 17:41 38.60015 -7.42623 32811 ft 467 kts 12°
2026-04-20 17:42 38.63159 -7.41601 33164 ft 466 kts 12°
2026-04-20 17:42 38.66298 -7.40581 33491 ft 466 kts 12°
2026-04-20 17:42 38.69440 -7.39559 33854 ft 464 kts 12°
2026-04-20 17:42 38.72564 -7.38541 34164 ft 463 kts 12°
2026-04-20 17:43 38.75685 -7.37523 34425 ft 463 kts 12°
2026-04-20 17:43 38.78806 -7.36506 34661 ft 463 kts 12°
2026-04-20 17:43 38.81925 -7.35487 34932 ft 462 kts 12°
2026-04-20 17:43 38.85039 -7.34469 35222 ft 461 kts 12°
2026-04-20 17:44 38.88144 -7.33453 35507 ft 460 kts 12°
2026-04-20 17:44 38.91244 -7.32438 35754 ft 460 kts 12°
2026-04-20 17:44 38.94351 -7.31420 35855 ft 463 kts 12°
2026-04-20 17:45 39.00617 -7.29364 35847 ft 465 kts 12°
2026-04-20 17:45 39.06847 -7.27314 35841 ft 459 kts 12°
2026-04-20 17:46 39.13015 -7.25282 35859 ft 457 kts 12°
2026-04-20 17:46 39.19168 -7.23252 35863 ft 456 kts 12°
2026-04-20 17:47 39.25123 -7.20439 35868 ft 458 kts 25°
2026-04-20 17:47 39.30781 -7.16638 35859 ft 458 kts 26°
2026-04-20 17:48 39.36429 -7.12795 35872 ft 459 kts 26°
2026-04-20 17:48 39.42070 -7.09010 35859 ft 460 kts 26°
2026-04-20 17:49 39.47774 -7.05211 35857 ft 462 kts 26°
2026-04-20 17:49 39.53491 -7.01405 35857 ft 463 kts 26°
2026-04-20 17:50 39.59260 -6.97556 35857 ft 464 kts 26°
2026-04-20 17:50 39.64961 -6.93744 35852 ft 465 kts 26°
2026-04-20 17:51 39.70709 -6.89893 35853 ft 465 kts 26°
2026-04-20 17:51 39.76459 -6.86033 35853 ft 465 kts 26°
2026-04-20 17:52 39.82208 -6.82166 35850 ft 465 kts 26°
2026-04-20 17:52 39.87946 -6.78299 35854 ft 464 kts 26°
2026-04-20 17:53 39.93672 -6.74433 35855 ft 463 kts 26°
2026-04-20 17:53 39.99380 -6.70572 35859 ft 462 kts 26°
2026-04-20 17:54 40.05075 -6.66712 35866 ft 461 kts 26°
2026-04-20 17:54 40.10755 -6.62856 35865 ft 460 kts 26°
2026-04-20 17:55 40.16430 -6.58995 35871 ft 459 kts 26°
2026-04-20 17:55 40.22094 -6.55134 35877 ft 459 kts 26°
2026-04-20 17:56 40.27758 -6.51267 35879 ft 459 kts 26°
2026-04-20 17:56 40.33422 -6.47392 35885 ft 460 kts 25°
2026-04-20 17:57 40.39054 -6.43531 35889 ft 460 kts 25°
2026-04-20 17:57 40.44728 -6.39634 35878 ft 461 kts 25°
2026-04-20 17:58 40.50408 -6.35724 35896 ft 461 kts 26°
2026-04-20 17:58 40.56095 -6.31804 35892 ft 462 kts 26°
2026-04-20 17:59 40.61786 -6.27877 35901 ft 462 kts 25°
2026-04-20 17:59 40.67477 -6.23952 35899 ft 462 kts 26°
2026-04-20 18:00 40.73169 -6.20017 35899 ft 462 kts 26°
2026-04-20 18:00 40.78861 -6.16075 35908 ft 462 kts 25°
2026-04-20 18:01 40.84551 -6.12124 35906 ft 462 kts 26°
2026-04-20 18:01 40.90237 -6.08169 35906 ft 462 kts 25°
2026-04-20 18:02 40.95921 -6.04207 35906 ft 461 kts 25°
2026-04-20 18:02 41.01596 -6.00244 35913 ft 461 kts 25°
2026-04-20 18:03 41.07265 -5.96277 35904 ft 461 kts 25°
2026-04-20 18:03 41.12928 -5.92307 35914 ft 460 kts 25°
2026-04-20 18:04 41.18584 -5.88333 35909 ft 460 kts 25°
2026-04-20 18:04 41.24234 -5.84357 35913 ft 460 kts 25°
2026-04-20 18:05 41.32702 -5.78382 35911 ft 459 kts 25°
2026-04-20 18:05 41.38341 -5.74392 35913 ft 459 kts 25°
2026-04-20 18:06 41.43975 -5.70398 35915 ft 459 kts 25°
2026-04-20 18:06 41.49606 -5.66400 35909 ft 458 kts 25°
2026-04-20 18:07 41.55274 -5.62525 35917 ft 457 kts 21°
2026-04-20 18:07 41.61112 -5.59230 35917 ft 455 kts 19°
2026-04-20 18:08 41.66980 -5.56045 35920 ft 455 kts 19°
2026-04-20 18:08 41.72834 -5.52798 35906 ft 455 kts 20°
2026-04-20 18:09 41.78671 -5.49505 35907 ft 455 kts 20°
2026-04-20 18:09 41.84461 -5.46217 35919 ft 455 kts 20°
2026-04-20 18:10 41.90282 -5.42905 35921 ft 454 kts 20°
2026-04-20 18:10 41.96101 -5.39589 35922 ft 454 kts 20°
2026-04-20 18:11 42.01917 -5.36269 35906 ft 454 kts 20°
2026-04-20 18:11 42.07727 -5.32947 35938 ft 453 kts 20°
2026-04-20 18:12 42.13531 -5.29621 35916 ft 453 kts 20°
2026-04-20 18:12 42.19331 -5.26291 35923 ft 453 kts 20°
2026-04-20 18:13 42.25124 -5.22958 35921 ft 452 kts 20°
2026-04-20 18:13 42.30913 -5.19621 35934 ft 452 kts 20°
2026-04-20 18:14 42.36693 -5.16282 35926 ft 452 kts 20°
2026-04-20 18:14 42.42475 -5.12935 35930 ft 452 kts 20°
2026-04-20 18:15 42.48251 -5.09585 35931 ft 452 kts 20°
2026-04-20 18:15 42.54026 -5.06229 35941 ft 452 kts 20°
2026-04-20 18:16 42.59802 -5.02865 35941 ft 452 kts 20°
2026-04-20 18:16 42.65579 -4.99494 35937 ft 452 kts 20°
2026-04-20 18:17 42.71349 -4.96121 35947 ft 452 kts 20°
2026-04-20 18:17 42.77129 -4.92735 35943 ft 452 kts 20°
2026-04-20 18:18 42.82904 -4.89344 35947 ft 452 kts 20°
2026-04-20 18:18 42.88673 -4.85950 35952 ft 451 kts 20°
2026-04-20 18:19 42.94404 -4.82571 35963 ft 452 kts 20°
2026-04-20 18:19 43.00176 -4.79161 35959 ft 453 kts 20°
2026-04-20 18:20 43.05955 -4.75739 35961 ft 452 kts 20°
2026-04-20 18:20 43.11728 -4.72315 35968 ft 452 kts 20°
2026-04-20 18:21 43.17497 -4.68885 35976 ft 452 kts 20°
2026-04-20 18:21 43.23260 -4.65450 35971 ft 451 kts 20°
2026-04-20 18:22 43.29009 -4.62019 35983 ft 451 kts 20°
2026-04-20 18:22 43.34755 -4.58581 35988 ft 450 kts 20°
2026-04-20 18:23 43.40490 -4.55143 35980 ft 449 kts 20°
2026-04-20 18:23 43.46222 -4.51700 35970 ft 449 kts 20°
2026-04-20 18:24 43.51952 -4.48252 35969 ft 449 kts 20°
2026-04-20 18:24 43.57681 -4.44798 35979 ft 450 kts 20°
2026-04-20 18:25 43.63413 -4.41334 35967 ft 450 kts 20°
2026-04-20 18:25 43.68180 -4.38447 35961 ft 450 kts 20°
2026-04-20 18:26 43.73918 -4.34966 35961 ft 451 kts 20°
2026-04-20 18:26 43.79659 -4.31475 35965 ft 451 kts 20°
2026-04-20 18:27 43.85410 -4.27971 35959 ft 452 kts 20°
2026-04-20 18:27 43.91162 -4.24459 35959 ft 452 kts 20°
2026-04-20 18:28 43.96921 -4.20934 35966 ft 452 kts 20°
2026-04-20 18:28 44.02677 -4.17404 35959 ft 453 kts 20°
2026-04-20 18:29 44.08438 -4.13864 35958 ft 453 kts 20°
2026-04-20 18:29 44.14195 -4.10318 35957 ft 453 kts 20°
2026-04-20 18:30 44.19954 -4.06764 35965 ft 453 kts 20°
2026-04-20 18:30 44.25712 -4.03202 35961 ft 453 kts 20°
2026-04-20 18:31 44.31464 -3.99636 35960 ft 452 kts 21°
2026-04-20 18:31 44.36913 -3.95169 35973 ft 456 kts 31°
2026-04-20 18:32 44.42104 -3.90045 35963 ft 457 kts 32°
2026-04-20 18:32 44.47291 -3.84916 35961 ft 456 kts 32°
2026-04-20 18:33 44.52465 -3.79869 35968 ft 456 kts 31°
2026-04-20 18:33 44.57675 -3.74815 35969 ft 455 kts 31°
2026-04-20 18:34 44.62886 -3.69755 35962 ft 455 kts 31°
2026-04-20 18:34 44.68083 -3.64696 35964 ft 454 kts 31°
2026-04-20 18:35 44.73275 -3.59629 35963 ft 454 kts 31°
2026-04-20 18:35 44.78456 -3.54559 35964 ft 454 kts 31°
2026-04-20 18:36 44.83630 -3.49487 35965 ft 453 kts 31°
2026-04-20 18:36 44.88801 -3.44405 35964 ft 453 kts 31°
2026-04-20 18:37 44.93967 -3.39317 35964 ft 453 kts 31°
2026-04-20 18:37 44.99131 -3.34219 35966 ft 453 kts 31°
2026-04-20 18:38 45.04294 -3.29112 35970 ft 453 kts 31°
2026-04-20 18:38 45.09453 -3.23997 35966 ft 453 kts 31°
2026-04-20 18:39 45.14608 -3.18873 35966 ft 453 kts 31°
2026-04-20 18:39 45.19761 -3.13740 35974 ft 453 kts 31°
2026-04-20 18:40 45.24921 -3.08588 35965 ft 453 kts 31°
2026-04-20 18:40 45.30075 -3.03432 35967 ft 453 kts 31°
2026-04-20 18:41 45.35212 -2.98234 35980 ft 453 kts 32°
2026-04-20 18:41 45.40318 -2.92959 35973 ft 453 kts 32°
2026-04-20 18:42 45.45416 -2.87674 35968 ft 453 kts 32°
2026-04-20 18:42 45.50511 -2.82392 35972 ft 453 kts 32°
2026-04-20 18:43 45.55602 -2.77109 35998 ft 452 kts 32°
2026-04-20 18:43 45.60656 -2.71853 35975 ft 452 kts 32°
2026-04-20 18:44 45.65734 -2.66559 35979 ft 452 kts 32°
2026-04-20 18:44 45.70808 -2.61258 35981 ft 451 kts 32°
2026-04-20 18:45 45.75876 -2.55950 36001 ft 451 kts 31°
2026-04-20 18:45 45.80936 -2.50639 35988 ft 451 kts 31°
2026-04-20 18:46 45.85994 -2.45317 35985 ft 451 kts 31°
2026-04-20 18:46 45.91048 -2.39987 35991 ft 450 kts 32°
2026-04-20 18:47 45.96094 -2.34652 36009 ft 450 kts 31°
2026-04-20 18:47 46.01140 -2.29308 35995 ft 450 kts 31°
2026-04-20 18:48 46.06525 -2.25000 35998 ft 438 kts 14°
2026-04-20 18:48 46.12370 -2.23087 36005 ft 429 kts
2026-04-20 18:49 46.18264 -2.21738 36011 ft 429 kts
2026-04-20 18:49 46.24165 -2.20358 36003 ft 430 kts
2026-04-20 18:50 46.30064 -2.18932 36009 ft 430 kts
2026-04-20 18:50 46.35927 -2.17494 36020 ft 430 kts
2026-04-20 18:51 46.41828 -2.16042 36016 ft 431 kts
2026-04-20 18:51 46.47737 -2.14585 36019 ft 431 kts
2026-04-20 18:52 46.53643 -2.13126 36019 ft 431 kts
2026-04-20 18:52 46.59551 -2.11664 36029 ft 431 kts
2026-04-20 18:53 46.65463 -2.10197 36027 ft 431 kts
2026-04-20 18:53 46.71373 -2.08728 36029 ft 431 kts
2026-04-20 18:54 46.77279 -2.07256 36029 ft 430 kts
2026-04-20 18:54 46.83184 -2.05782 36032 ft 430 kts
2026-04-20 18:55 46.89083 -2.04305 36033 ft 430 kts
2026-04-20 18:55 46.94977 -2.02827 36039 ft 430 kts
2026-04-20 18:56 47.00791 -2.00581 36040 ft 440 kts 18°
2026-04-20 18:56 47.06021 -1.95750 36065 ft 449 kts 32°
2026-04-20 18:57 47.10919 -1.90126 36050 ft 449 kts 32°
2026-04-20 18:57 47.15890 -1.84576 36048 ft 448 kts 31°
2026-04-20 18:58 47.20882 -1.79082 36055 ft 448 kts 31°
2026-04-20 18:58 47.25873 -1.73583 36048 ft 448 kts 31°
2026-04-20 18:59 47.30854 -1.68070 36052 ft 448 kts 31°
2026-04-20 18:59 47.35655 -1.62185 36048 ft 455 kts 43°
2026-04-20 19:00 47.39616 -1.54831 36066 ft 459 kts 48°
2026-04-20 19:00 47.43480 -1.47337 36068 ft 459 kts 47°
2026-04-20 19:01 47.47374 -1.39876 36074 ft 458 kts 47°
2026-04-20 19:01 47.51284 -1.32442 36071 ft 458 kts 47°
2026-04-20 19:02 47.55197 -1.25001 36089 ft 458 kts 47°
2026-04-20 19:02 47.59104 -1.17547 36092 ft 458 kts 47°
2026-04-20 19:03 47.63008 -1.10074 36085 ft 458 kts 47°
2026-04-20 19:03 47.66904 -1.02596 36087 ft 458 kts 47°
2026-04-20 19:04 47.70773 -0.95150 36083 ft 458 kts 47°
2026-04-20 19:04 47.74661 -0.87650 36092 ft 458 kts 47°
2026-04-20 19:05 47.78546 -0.80129 36099 ft 459 kts 48°
2026-04-20 19:05 47.82429 -0.72591 36111 ft 459 kts 48°
2026-04-20 19:06 47.84364 -0.68825 35938 ft 457 kts 48°
2026-04-20 19:06 47.86284 -0.65083 35614 ft 451 kts 48°
2026-04-20 19:06 47.88171 -0.61396 35239 ft 446 kts 47°
2026-04-20 19:06 47.90043 -0.57738 34868 ft 443 kts 47°
2026-04-20 19:07 47.91904 -0.54099 34482 ft 440 kts 47°
2026-04-20 19:07 47.93750 -0.50483 34116 ft 437 kts 47°
2026-04-20 19:07 47.95585 -0.46887 33684 ft 434 kts 47°
2026-04-20 19:07 47.97407 -0.43309 33276 ft 431 kts 47°
2026-04-20 19:08 47.99215 -0.39754 32890 ft 428 kts 47°
2026-04-20 19:08 48.02788 -0.32717 32160 ft 422 kts 47°
2026-04-20 19:08 48.04552 -0.29235 31795 ft 419 kts 46°
2026-04-20 19:09 48.06307 -0.25767 31429 ft 417 kts 46°
2026-04-20 19:09 48.08060 -0.22330 31067 ft 414 kts 46°
2026-04-20 19:09 48.09819 -0.18937 30716 ft 412 kts 45°
2026-04-20 19:09 48.11575 -0.15568 30364 ft 409 kts 45°
2026-04-20 19:10 48.13323 -0.12215 29980 ft 407 kts 45°
2026-04-20 19:10 48.15058 -0.08878 29579 ft 405 kts 45°
2026-04-20 19:10 48.16779 -0.05559 29206 ft 401 kts 45°
2026-04-20 19:10 48.18480 -0.02269 28834 ft 398 kts 45°
2026-04-20 19:11 48.20173 0.01009 28474 ft 396 kts 45°
2026-04-20 19:11 48.21854 0.04270 28105 ft 394 kts 45°
2026-04-20 19:11 48.23524 0.07512 27769 ft 393 kts 45°
2026-04-20 19:11 48.25197 0.10763 27403 ft 394 kts 46°
2026-04-20 19:12 48.26868 0.14014 27041 ft 393 kts 46°
2026-04-20 19:12 48.28530 0.17255 26675 ft 391 kts 46°
2026-04-20 19:12 48.30181 0.20481 26307 ft 388 kts 46°
2026-04-20 19:12 48.31821 0.23686 25967 ft 386 kts 46°
2026-04-20 19:13 48.32902 0.25800 25731 ft 384 kts 46°
2026-04-20 19:13 48.34523 0.28972 25388 ft 382 kts 46°
2026-04-20 19:13 48.36137 0.32134 25043 ft 380 kts 46°
2026-04-20 19:13 48.37774 0.35227 24693 ft 374 kts 39°
2026-04-20 19:14 48.40431 0.38244 24264 ft 353 kts 19°
2026-04-20 19:14 48.42668 0.39584 23925 ft 340 kts
2026-04-20 19:14 48.44950 0.40436 23605 ft 337 kts
2026-04-20 19:14 48.46487 0.40986 23333 ft 335 kts
2026-04-20 19:15 48.48750 0.41791 22960 ft 333 kts
2026-04-20 19:15 48.50999 0.42598 22619 ft 331 kts
2026-04-20 19:15 48.53227 0.43408 22290 ft 328 kts
2026-04-20 19:15 48.55440 0.44220 21965 ft 326 kts
2026-04-20 19:16 48.57634 0.45030 21644 ft 323 kts
2026-04-20 19:16 48.59811 0.45837 21316 ft 321 kts
2026-04-20 19:16 48.61976 0.46642 20998 ft 320 kts
2026-04-20 19:16 48.64142 0.47447 20685 ft 321 kts
2026-04-20 19:17 48.66316 0.48256 20387 ft 321 kts
2026-04-20 19:17 48.68478 0.49064 20050 ft 320 kts
2026-04-20 19:17 48.70605 0.49859 19728 ft 318 kts
2026-04-20 19:17 48.72774 0.50671 19406 ft 316 kts
2026-04-20 19:18 48.74875 0.51458 19093 ft 314 kts
2026-04-20 19:18 48.77021 0.52262 18772 ft 313 kts
2026-04-20 19:18 48.79128 0.53042 18460 ft 310 kts
2026-04-20 19:18 48.81216 0.53586 18108 ft 307 kts
2026-04-20 19:19 48.83327 0.54002 17779 ft 305 kts
2026-04-20 19:19 48.85424 0.54389 17452 ft 303 kts
2026-04-20 19:19 48.87508 0.54775 17148 ft 300 kts
2026-04-20 19:19 48.89573 0.55168 16837 ft 298 kts
2026-04-20 19:20 48.91621 0.55565 16515 ft 296 kts
2026-04-20 19:20 48.93658 0.55965 16219 ft 294 kts
2026-04-20 19:20 48.95683 0.56367 15917 ft 292 kts
2026-04-20 19:20 48.97700 0.56770 15620 ft 293 kts
2026-04-20 19:21 48.99731 0.57176 15320 ft 296 kts
2026-04-20 19:21 49.01767 0.57585 15011 ft 294 kts
2026-04-20 19:21 49.03795 0.57994 14703 ft 293 kts
2026-04-20 19:21 49.05814 0.58402 14401 ft 292 kts
2026-04-20 19:22 49.07829 0.58809 14096 ft 291 kts
2026-04-20 19:22 49.09832 0.59215 13775 ft 290 kts
2026-04-20 19:22 49.11829 0.59619 13437 ft 289 kts
2026-04-20 19:22 49.13814 0.60021 13125 ft 287 kts
2026-04-20 19:23 49.15785 0.60421 12816 ft 285 kts
2026-04-20 19:23 49.17744 0.60818 12517 ft 283 kts
2026-04-20 19:23 49.19676 0.61342 12233 ft 283 kts 18°
2026-04-20 19:23 49.21380 0.62919 12207 ft 293 kts 37°
2026-04-20 19:24 49.22880 0.65045 12186 ft 294 kts 43°
2026-04-20 19:24 49.24297 0.67273 12172 ft 291 kts 43°
2026-04-20 19:24 49.25693 0.69508 12173 ft 290 kts 43°
2026-04-20 19:24 49.27095 0.71742 12183 ft 291 kts 43°
2026-04-20 19:25 49.28505 0.73971 12182 ft 292 kts 43°
2026-04-20 19:25 49.29924 0.76200 12184 ft 292 kts 43°
2026-04-20 19:25 49.31345 0.78426 12192 ft 292 kts 42°
2026-04-20 19:25 49.32772 0.80652 12186 ft 293 kts 42°
2026-04-20 19:26 49.34200 0.82877 12182 ft 293 kts 42°
2026-04-20 19:26 49.35627 0.85101 12190 ft 292 kts 42°
2026-04-20 19:26 49.37052 0.87323 12191 ft 292 kts 42°
2026-04-20 19:26 49.38477 0.89544 12199 ft 292 kts 42°
2026-04-20 19:27 49.39898 0.91763 12196 ft 291 kts 42°
2026-04-20 19:27 49.41319 0.93981 12185 ft 291 kts 42°
2026-04-20 19:27 49.42738 0.96198 12189 ft 291 kts 42°
2026-04-20 19:27 49.44152 0.98411 12184 ft 291 kts 42°
2026-04-20 19:28 49.45568 1.00626 12182 ft 290 kts 42°
2026-04-20 19:28 49.46980 1.02838 12184 ft 290 kts 42°
2026-04-20 19:28 49.48391 1.05049 12187 ft 289 kts 42°
2026-04-20 19:28 49.49813 1.07281 11861 ft 298 kts 42°
2026-04-20 19:29 49.51279 1.09581 11420 ft 302 kts 43°
2026-04-20 19:29 49.52748 1.11894 10971 ft 300 kts 43°
2026-04-20 19:29 49.54194 1.14172 10532 ft 294 kts 43°
2026-04-20 19:29 49.55591 1.16376 10127 ft 289 kts 43°
2026-04-20 19:30 49.56953 1.18526 9919 ft 277 kts 43°
2026-04-20 19:30 49.58276 1.20784 9400 ft 286 kts 54°
2026-04-20 19:30 49.58976 1.23608 9266 ft 281 kts 76°
2026-04-20 19:30 49.59250 1.26555 9205 ft 276 kts 81°
2026-04-20 19:31 49.59458 1.29476 9191 ft 273 kts 81°
2026-04-20 19:31 49.59671 1.32386 9197 ft 274 kts 81°
2026-04-20 19:31 49.59893 1.35318 9099 ft 278 kts 81°
2026-04-20 19:31 49.60125 1.38298 8825 ft 281 kts 80°
2026-04-20 19:32 49.60361 1.41276 8583 ft 277 kts 81°
2026-04-20 19:32 49.60593 1.44205 8342 ft 273 kts 80°
2026-04-20 19:32 49.60823 1.47093 8110 ft 269 kts 81°
2026-04-20 19:32 49.61049 1.49933 7886 ft 265 kts 81°
2026-04-20 19:33 49.61270 1.52736 7658 ft 261 kts 81°
2026-04-20 19:33 49.61488 1.55507 7353 ft 261 kts 81°
2026-04-20 19:33 49.61706 1.58285 7080 ft 260 kts 81°
2026-04-20 19:33 49.61690 1.61076 6753 ft 262 kts 95°
2026-04-20 19:34 49.61451 1.63862 6432 ft 262 kts 95°
2026-04-20 19:34 49.61233 1.66646 6109 ft 261 kts 94°
2026-04-20 19:34 49.61030 1.69426 5788 ft 261 kts 94°
2026-04-20 19:34 49.60838 1.72128 5771 ft 246 kts 94°
2026-04-20 19:35 49.60658 1.74666 5674 ft 230 kts 94°
2026-04-20 19:35 49.60229 1.76956 5527 ft 219 kts 114°
2026-04-20 19:35 49.59469 1.78950 5265 ft 213 kts 119°
2026-04-20 19:35 49.58677 1.80843 4994 ft 208 kts 120°
2026-04-20 19:36 49.57886 1.82673 4704 ft 202 kts 120°
2026-04-20 19:36 49.57113 1.84447 4426 ft 197 kts 120°
2026-04-20 19:36 49.56357 1.86177 4159 ft 192 kts 120°
2026-04-20 19:36 49.55621 1.87864 3906 ft 187 kts 120°
2026-04-20 19:37 49.54901 1.89517 3646 ft 185 kts 119°
2026-04-20 19:37 49.54187 1.91158 3392 ft 184 kts 119°
2026-04-20 19:37 49.53475 1.92792 3139 ft 184 kts 119°
2026-04-20 19:37 49.52763 1.94428 2879 ft 184 kts 119°
2026-04-20 19:38 49.52058 1.96044 2632 ft 180 kts 118°
2026-04-20 19:38 49.51364 1.97638 2393 ft 179 kts 118°
2026-04-20 19:38 49.50673 1.99228 2145 ft 176 kts 116°
2026-04-20 19:38 49.50011 2.00748 1912 ft 166 kts 116°
2026-04-20 19:39 49.49394 2.02170 1665 ft 153 kts 117°
2026-04-20 19:39 49.48827 2.03475 1503 ft 148 kts 117°
2026-04-20 19:39 49.48240 2.04784 1300 ft 148 kts 118°
2026-04-20 19:39 49.47680 2.06114 1071 ft 147 kts 118°
2026-04-20 19:40 49.47111 2.07422 842 ft 148 kts 121°
2026-04-20 19:40 49.46523 2.08721 660 ft 148 kts 120°
2026-04-20 19:40 49.45980 2.10055 456 ft 147 kts 118°
2026-04-20 19:40 49.45421 2.11347 336 ft 136 kts 121°
2026-04-20 19:41 49.44980 2.12359 326 ft 92 kts 124°
2026-04-20 19:41 49.44789 2.12775 316 ft 29 kts 124°
2026-04-20 19:41 49.44692 2.13008 312 ft 17 kts 116°
2026-04-20 19:41 49.44663 2.13164 311 ft 11 kts 147°
2026-04-20 19:42 49.44643 2.13092 309 ft 11 kts 307°
2026-04-20 19:42 49.44688 2.13004 312 ft 10 kts 307°
2026-04-20 19:42 49.44729 2.12915 313 ft 10 kts 304°
2026-04-20 19:42 49.44772 2.12820 314 ft 14 kts 304°
2026-04-20 19:43 49.44842 2.12657 318 ft 21 kts 303°
2026-04-20 19:43 49.44925 2.12468 325 ft 21 kts 303°
2026-04-20 19:43 49.45004 2.12283 328 ft 20 kts 303°
2026-04-20 19:43 49.45082 2.12105 330 ft 20 kts 304°
2026-04-20 19:44 49.45159 2.11932 334 ft 20 kts 303°
2026-04-20 19:44 49.45250 2.11721 332 ft 28 kts 304°
2026-04-20 19:44 49.45356 2.11479 336 ft 26 kts 304°
2026-04-20 19:44 49.45454 2.11258 345 ft 24 kts 304°
2026-04-20 19:45 49.45544 2.11050 350 ft 23 kts 303°
2026-04-20 19:45 49.45630 2.10888 351 ft 18 kts 339°
2026-04-20 19:45 49.45742 2.10947 350 ft 16 kts 27°
2026-04-20 19:45 49.45779 2.11056 347 ft 13 kts 112°
2026-04-20 19:46 49.45729 2.11175 350 ft 13 kts 125°
2026-04-20 19:46 49.45728 2.11270 353 ft 8 kts 17°
2026-04-20 19:46 49.45766 2.11263 351 ft 2 kts 347°
2026-04-20 19:46 49.45771 2.11261 349 ft 0 kts 347°